Pine Bluff, AR

9:34 AM CDT on June 25, 2017 (GMT -0500)
Grider

Weather History for KPBF - May, 2012

Change the Weather History Date:

Friday, May 11, 2012

  Actual Average Record
Temperature  
Mean Temperature 67 °F 70 °F  
Max Temperature 75 °F 81 °F 94 °F (1928)
Min Temperature 58 °F 60 °F 41 °F (1924)
Degree Days  
Heating Degree Days 0 1  
Month to date heating degree days 0 12  
Since 1 July heating degree days 2206 2876  
Cooling Degree Days 2 6  
Month to date cooling degree days 107 53  
Year to date cooling degree days 295 140  
Growing Degree Days 17 (Base 50)    
Moisture  
Dew Point 56 °F    
Average Humidity 71    
Maximum Humidity 93    
Minimum Humidity 49    
Precipitation  
Precipitation 0.03 in 0.16 in 3.69 in (1953)
Month to date precipitation 0.71 1.91  
Year to date precipitation 13.01 20.06  
Snow  
Snow 0.00 in 0.00 in - ()
Month to date snowfall 0.0 0.0  
Since 1 July snowfall 0.5 3.1  
Snow Depth 0.00 in    
Sea Level Pressure  
Sea Level Pressure 30.03 in    
Wind  
Wind Speed 6 mph (ESE)    
Max Wind Speed 12 mph    
Max Gust Speed 16 mph    
Visibility 10 miles    
Events Rain    
T = Trace of Precipitation, MM = Missing Value Source: NWS Daily Summary

Daily Weather History Graph

Daily Weather History Graph

Search for Another Location

Airport or City:

Trip Planner

Search our weather history database for the weather conditions in past years. The results will help you decide how hot, cold, wet, or windy it might be!

Date:

Astronomy

May. 11, 2012 Rise Set
Actual Time 6:08 AM CDT 7:59 PM CDT
Civil Twilight 5:41 AM CDT 8:27 PM CDT
Nautical Twilight 5:07 AM CDT 9:00 PM CDT
Astronomical Twilight 4:32 AM CDT 9:36 PM CDT
Moon 12:41 AM CDT (5/11) 11:38 AM CDT (5/11)
Length of Visible Light 14h 46m
Length of Day
13h 51m
Waning Gibbous, 63% of the Moon is Illuminated
May 11
Waning Gibbous
May 12
Last Quarter
May 20
New
May 28
First Quarter
Jun 4
Full

Hourly Weather History & Observations

Time (CDT) Temp. Dew Point Humidity Pressure Visibility Wind Dir Wind Speed Gust Speed Precip Events Conditions
12:53 AM 64.4 °F 53.6 °F 68% 29.98 in 10.0 mi ENE 4.6 mph - N/A   Clear
1:53 AM 63.0 °F 54.0 °F 72% 29.96 in 10.0 mi ENE 5.8 mph - N/A   Clear
2:53 AM 62.1 °F 54.0 °F 75% 29.95 in 10.0 mi NE 4.6 mph - N/A   Clear
3:53 AM 60.1 °F 54.0 °F 80% 29.96 in 10.0 mi Calm Calm - N/A   Clear
4:53 AM 60.1 °F 54.0 °F 80% 29.97 in 10.0 mi Calm Calm - N/A   Clear
5:53 AM 59.0 °F 55.0 °F 87% 29.98 in 10.0 mi East 3.5 mph - N/A   Clear
6:53 AM 60.1 °F 55.9 °F 86% 29.99 in 10.0 mi ESE 3.5 mph - N/A   Clear
7:53 AM 63.0 °F 57.0 °F 81% 30.00 in 10.0 mi ESE 5.8 mph - N/A   Clear
8:53 AM 66.9 °F 55.0 °F 66% 30.02 in 10.0 mi ESE 9.2 mph - N/A   Clear
9:53 AM 70.0 °F 54.0 °F 57% 30.03 in 10.0 mi ESE 8.1 mph - N/A   Clear
10:53 AM 70.0 °F 54.0 °F 57% 30.05 in 10.0 mi SE 9.2 mph - N/A   Clear
11:53 AM 72.0 °F 55.0 °F 55% 30.07 in 10.0 mi SE 9.2 mph - N/A   Clear
12:53 PM 73.0 °F 54.0 °F 51% 30.06 in 10.0 mi SSE 8.1 mph - N/A   Partly Cloudy
1:53 PM 73.0 °F 54.0 °F 51% 30.06 in 10.0 mi ESE 9.2 mph - N/A   Clear
2:53 PM 73.9 °F 55.0 °F 52% 30.06 in 10.0 mi ESE 5.8 mph - N/A   Clear
3:53 PM 75.0 °F 55.0 °F 50% 30.03 in 10.0 mi East 6.9 mph - N/A   Clear
4:53 PM 73.0 °F 55.0 °F 53% 30.02 in 10.0 mi East 4.6 mph - N/A   Clear
5:53 PM 73.0 °F 57.9 °F 59% 30.03 in 8.0 mi ENE 5.8 mph - N/A   Clear
6:53 PM 71.1 °F 57.9 °F 63% 30.02 in 10.0 mi East 4.6 mph - N/A   Scattered Clouds
7:53 PM 69.1 °F 60.1 °F 73% 30.04 in 10.0 mi NNE 4.6 mph - 0.00 in Rain Light Rain
8:53 PM 68.0 °F 60.1 °F 76% 30.06 in 10.0 mi ENE 3.5 mph - 0.00 in Rain Light Rain
9:53 PM 64.9 °F 62.1 °F 90% 30.10 in 10.0 mi South 8.1 mph - 0.01 in Rain Light Rain
10:53 PM 63.0 °F 60.1 °F 90% 30.11 in 10.0 mi South 6.9 mph - 0.01 in   Overcast
11:53 PM 61.0 °F 59.0 °F 93% 30.12 in 7.0 mi South 9.2 mph - 0.00 in Rain Light Rain